Hazen, ND

4:31 AM CDT on October 24, 2017 (GMT -0500)
Mercer County Regional

Weather History for KHZE - December, 2012

Change the Weather History Date:

Thursday, December 6, 2012

  Actual Average (KN60) Record (KN60)
Temperature  
Mean Temperature 26 °F -  
Max Temperature 37 °F 28 °F 54 °F (2015)
Min Temperature 14 °F 12 °F -16 °F (2013)
Degree Days  
Heating Degree Days 39    
Moisture  
Dew Point 22 °F    
Average Humidity 75    
Maximum Humidity 93    
Minimum Humidity 48    
Precipitation  
Precipitation 0.00 in - - ()
Sea Level Pressure  
Sea Level Pressure 29.93 in    
Wind  
Wind Speed 10 mph (WNW)    
Max Wind Speed 20 mph    
Max Gust Speed 30 mph    
Visibility 10 miles    
Events      
Averages and records for this station are not official NWS values.
T = Trace of Precipitation, MM = Missing Value Source: NWS Daily Summary

Daily Weather History Graph

Daily Weather History Graph

Search for Another Location

Airport or City:

Trip Planner

Search our weather history database for the weather conditions in past years. The results will help you decide how hot, cold, wet, or windy it might be!

Date:

Astronomy

Dec. 06, 2012 Rise Set
Actual Time 8:18 AM CST 4:56 PM CST
Civil Twilight 7:43 AM CST 5:31 PM CST
Nautical Twilight 7:04 AM CST 6:10 PM CST
Astronomical Twilight 6:27 AM CST 6:47 PM CST
Moon 12:09 AM CST (12/6) 12:48 PM CST (12/6)
Length of Visible Light 9h 48m
Length of Day
8h 37m
Waning Gibbous, 49% of the Moon is Illuminated
Dec 6
Waning Gibbous
Dec 13
New
Dec 19
First Quarter
Dec 28
Full
Jan 4
Last Quarter

Hourly Weather History & Observations

Time (CST) Temp. Windchill Dew Point Humidity Pressure Visibility Wind Dir Wind Speed Gust Speed Precip Events Conditions
12:15 AM 35.6 °F 27.5 °F 26.6 °F 70% 29.79 in 10.0 mi West 11.5 mph - N/A   Scattered Clouds
12:35 AM 32.0 °F 23.6 °F 24.8 °F 75% 29.79 in 10.0 mi West 10.4 mph - N/A   Scattered Clouds
12:55 AM 32.0 °F 23.6 °F 24.8 °F 75% 29.79 in 10.0 mi West 10.4 mph - N/A   Partly Cloudy
1:15 AM 32.0 °F 24.2 °F 26.6 °F 80% 29.81 in 10.0 mi WNW 9.2 mph - N/A   Partly Cloudy
1:35 AM 32.0 °F 24.8 °F 26.6 °F 80% 29.81 in 10.0 mi West 8.1 mph - N/A   Mostly Cloudy
1:55 AM 32.0 °F 24.8 °F 26.6 °F 80% 29.81 in 10.0 mi WNW 8.1 mph - N/A   Overcast
2:15 AM 35.6 °F 26.6 °F 26.6 °F 70% 29.81 in 10.0 mi WNW 13.8 mph 18.4 mph N/A   Mostly Cloudy
2:35 AM 35.6 °F 26.2 °F 26.6 °F 70% 29.83 in 10.0 mi WNW 15.0 mph 19.6 mph N/A   Overcast
2:55 AM 37.4 °F 28.2 °F 28.4 °F 70% 29.84 in 10.0 mi WNW 16.1 mph 23.0 mph N/A   Overcast
3:15 AM 37.4 °F 27.2 °F 28.4 °F 70% 29.84 in 10.0 mi NW 19.6 mph 27.6 mph N/A   Overcast
3:35 AM 37.4 °F 27.8 °F 28.4 °F 70% 29.85 in 10.0 mi NW 17.3 mph 29.9 mph N/A   Overcast
3:55 AM 37.4 °F 27.8 °F 28.4 °F 70% 29.87 in 10.0 mi NW 17.3 mph - N/A   Overcast
4:15 AM 35.6 °F 25.9 °F 28.4 °F 75% 29.87 in 10.0 mi NW 16.1 mph 25.3 mph N/A   Overcast
4:35 AM 35.6 °F 26.2 °F 28.4 °F 75% 29.87 in 10.0 mi NW 15.0 mph 21.9 mph N/A   Overcast
4:55 AM 33.8 °F 24.3 °F 28.4 °F 81% 29.87 in 10.0 mi NW 13.8 mph - N/A   Mostly Cloudy
5:15 AM 32.0 °F 23.0 °F 26.6 °F 80% 29.89 in 10.0 mi NW 11.5 mph - N/A   Partly Cloudy
5:35 AM 32.0 °F 24.2 °F 26.6 °F 80% 29.91 in 10.0 mi NW 9.2 mph 17.3 mph N/A   Clear
5:55 AM 30.2 °F 22.6 °F 24.8 °F 80% 29.91 in 10.0 mi WNW 8.1 mph - N/A   Clear
6:15 AM 30.2 °F 21.3 °F 24.8 °F 80% 29.91 in 10.0 mi WNW 10.4 mph - N/A   Clear
6:35 AM 28.4 °F 19.7 °F 24.8 °F 86% 29.92 in 10.0 mi WNW 9.2 mph - N/A   Clear
6:55 AM 28.4 °F 21.2 °F 24.8 °F 86% 29.92 in 10.0 mi NW 6.9 mph - N/A   Partly Cloudy
7:15 AM 30.2 °F 20.2 °F 24.8 °F 80% 29.92 in 10.0 mi WNW 12.7 mph - N/A   Clear
7:35 AM 28.4 °F 18.5 °F 24.8 °F 86% 29.93 in 10.0 mi NW 11.5 mph 18.4 mph N/A   Clear
7:55 AM 28.4 °F 19.1 °F 23.0 °F 80% 29.94 in 10.0 mi WNW 10.4 mph - N/A   Clear
8:15 AM 26.6 °F 18.2 °F 23.0 °F 86% 29.95 in 10.0 mi West 8.1 mph - N/A   Partly Cloudy
8:35 AM 28.4 °F 18.5 °F 23.0 °F 80% 29.96 in 10.0 mi WNW 11.5 mph - N/A   Partly Cloudy
8:55 AM 28.4 °F 18.0 °F 24.8 °F 86% 29.97 in 10.0 mi West 12.7 mph 17.3 mph N/A   Mostly Cloudy
9:15 AM 28.4 °F 18.5 °F 24.8 °F 86% 29.97 in 10.0 mi WNW 11.5 mph - N/A   Overcast
9:35 AM 30.2 °F 19.8 °F 24.8 °F 80% 29.97 in 10.0 mi WNW 13.8 mph - N/A   Overcast
9:55 AM 30.2 °F 20.8 °F 24.8 °F 80% 29.98 in 10.0 mi West 11.5 mph - N/A   Overcast
10:15 AM 30.2 °F 21.9 °F 24.8 °F 80% 29.99 in 10.0 mi NW 9.2 mph - N/A   Overcast
10:35 AM 32.0 °F 21.6 °F 23.0 °F 69% 29.99 in 10.0 mi WNW 15.0 mph 19.6 mph N/A   Overcast
10:55 AM 32.0 °F 23.0 °F 23.0 °F 69% 30.00 in 10.0 mi West 11.5 mph - N/A   Overcast
11:15 AM 32.0 °F 22.1 °F 23.0 °F 69% 30.00 in 10.0 mi West 13.8 mph - N/A   Mostly Cloudy
11:35 AM 32.0 °F 21.6 °F 23.0 °F 69% 29.99 in 10.0 mi West 15.0 mph - N/A   Partly Cloudy
11:55 AM 32.0 °F 21.6 °F 23.0 °F 69% 29.98 in 10.0 mi West 15.0 mph - N/A   Clear
12:15 PM 32.0 °F 22.5 °F 23.0 °F 69% 29.98 in 10.0 mi West 12.7 mph - N/A   Clear
12:35 PM 32.0 °F 23.0 °F 23.0 °F 69% 29.97 in 10.0 mi West 11.5 mph - N/A   Clear
12:55 PM 32.0 °F 22.5 °F 24.8 °F 75% 29.96 in 10.0 mi West 12.7 mph - N/A   Clear
1:15 PM 33.8 °F 24.3 °F 23.0 °F 65% 29.96 in 10.0 mi WNW 13.8 mph - N/A   Clear
1:35 PM 33.8 °F 25.3 °F 23.0 °F 65% 29.96 in 10.0 mi West 11.5 mph - N/A   Clear
1:55 PM 35.6 °F 27.5 °F 23.0 °F 60% 29.95 in 10.0 mi West 11.5 mph 16.1 mph N/A   Clear
2:15 PM 35.6 °F 26.6 °F 23.0 °F 60% 29.95 in 10.0 mi WSW 13.8 mph - N/A   Clear
2:35 PM 35.6 °F 27.5 °F 23.0 °F 60% 29.96 in 10.0 mi WSW 11.5 mph 18.4 mph N/A   Clear
2:55 PM 35.6 °F 27.1 °F 21.2 °F 56% 29.95 in 10.0 mi WSW 12.7 mph - N/A   Clear
3:15 PM 37.4 °F 29.3 °F 21.2 °F 52% 29.95 in 10.0 mi West 12.7 mph - N/A   Clear
3:35 PM 37.4 °F 29.8 °F 21.2 °F 52% 29.95 in 10.0 mi WSW 11.5 mph - N/A   Clear
3:55 PM 37.4 °F 31.4 °F 21.2 °F 52% 29.96 in 10.0 mi West 8.1 mph - N/A   Clear
4:15 PM 35.6 °F 28.6 °F 17.6 °F 48% 29.96 in 10.0 mi WNW 9.2 mph - N/A   Clear
4:35 PM 32.0 °F 26.4 °F 17.6 °F 55% 29.96 in 10.0 mi West 5.8 mph - N/A   Clear
4:55 PM 32.0 °F - 17.6 °F 55% 29.96 in 10.0 mi Calm Calm - N/A   Clear
5:15 PM 24.8 °F - 14.0 °F 64% 29.95 in 10.0 mi Calm Calm - N/A   Clear
5:35 PM 23.0 °F 18.4 °F 15.8 °F 74% 29.95 in 7.0 mi SE 3.5 mph - N/A   Clear
5:55 PM 21.2 °F 14.9 °F 14.0 °F 74% 29.95 in 10.0 mi SSE 4.6 mph - N/A   Clear
6:15 PM 19.4 °F 14.3 °F 14.0 °F 80% 29.94 in 10.0 mi SSE 3.5 mph - N/A   Partly Cloudy
6:35 PM 19.4 °F - 14.0 °F 80% 29.94 in 10.0 mi Calm Calm - N/A   Clear
6:55 PM 17.6 °F 9.3 °F 14.0 °F 86% 29.94 in 10.0 mi South 5.8 mph - N/A   Clear
7:15 PM 19.4 °F - 14.0 °F 80% 29.95 in 7.0 mi Calm Calm - N/A   Clear
7:35 PM 19.4 °F - 14.0 °F 80% 29.95 in 6.0 mi Calm Calm - N/A   Haze
8:35 PM 17.6 °F - 14.0 °F 86% 29.95 in 10.0 mi Calm Calm - N/A   Clear
8:55 PM 19.4 °F - 14.0 °F 80% 29.95 in 10.0 mi Calm Calm - N/A   Clear
9:15 PM 19.4 °F - 15.8 °F 86% 29.95 in 10.0 mi Calm Calm - N/A   Partly Cloudy
9:35 PM 19.4 °F - 15.8 °F 86% 29.95 in 10.0 mi Calm Calm - N/A   Mostly Cloudy
9:55 PM 19.4 °F - 15.8 °F 86% 29.94 in 10.0 mi Calm Calm - N/A   Mostly Cloudy
10:15 PM 17.6 °F - 15.8 °F 93% 29.94 in 10.0 mi Calm Calm - N/A   Mostly Cloudy
10:35 PM 17.6 °F - 14.0 °F 86% 29.94 in 10.0 mi Calm Calm - N/A   Mostly Cloudy
10:55 PM 17.6 °F - 14.0 °F 86% 29.95 in 10.0 mi Calm Calm - N/A   Mostly Cloudy
11:15 PM 15.8 °F - 14.0 °F 93% 29.94 in 10.0 mi Calm Calm - N/A   Mostly Cloudy
11:35 PM 15.8 °F - 14.0 °F 93% 29.94 in 10.0 mi Calm Calm - N/A   Clear
11:55 PM 14.0 °F - 10.4 °F 86% 29.94 in 10.0 mi Calm Calm - N/A   Clear